TRA64R LIRF-EHRD

Flight info

Callsign TRA64R
Flight time 2h 6m
Altitude 36000
Route SOVAN DCT AMTEL DCT GIKEB DCT UNIMI DCT KPT L608 KUNOD DCT KRH DCT LIRSU DCT SOGRI L608 BUB/N0437F300 Y28 HELEN
Aircraft A321/M-SDE3FGHIRWY/LB1

Departure

Time 2026-02-20 08:06
Airport Rome–Fiumicino Leonardo da Vinci International Airport (LIRF)

Arrival

Time 2026-02-20 10:12
Airport Rotterdam The Hague Airport (EHRD)
Time Latitude Longitude Altitude Speed Heading
2026-02-20 07:42 41.79841 12.26518 14 ft 0 kts 70°
2026-02-20 08:01 41.79849 12.26548 14 ft 7 kts 65°
2026-02-20 08:01 41.79899 12.26555 14 ft 9 kts 342°
2026-02-20 08:01 41.79969 12.26520 14 ft 13 kts 339°
2026-02-20 08:02 41.80063 12.26473 15 ft 16 kts 340°
2026-02-20 08:02 41.80171 12.26421 14 ft 13 kts 340°
2026-02-20 08:02 41.80259 12.26393 15 ft 13 kts 326°
2026-02-20 08:02 41.80306 12.26289 15 ft 13 kts 295°
2026-02-20 08:03 41.80353 12.26185 14 ft 13 kts 320°
2026-02-20 08:03 41.80432 12.26166 16 ft 11 kts
2026-02-20 08:03 41.80507 12.26194 16 ft 11 kts 36°
2026-02-20 08:03 41.80542 12.26289 16 ft 13 kts 69°
2026-02-20 08:04 41.80583 12.26439 16 ft 21 kts 69°
2026-02-20 08:04 41.80642 12.26653 15 ft 26 kts 70°
2026-02-20 08:04 41.80706 12.26885 14 ft 21 kts 70°
2026-02-20 08:04 41.80756 12.27025 15 ft 16 kts 37°
2026-02-20 08:05 41.80861 12.27018 14 ft 17 kts 340°
2026-02-20 08:05 41.80955 12.26926 13 ft 16 kts 261°
2026-02-20 08:05 41.80925 12.26805 13 ft 28 kts 250°
2026-02-20 08:05 41.80773 12.26256 20 ft 108 kts 250°
2026-02-20 08:06 41.80411 12.24964 26 ft 183 kts 249°
2026-02-20 08:06 41.79956 12.23263 726 ft 198 kts 251°
2026-02-20 08:06 41.79461 12.21551 1773 ft 198 kts 244°
2026-02-20 08:06 41.78539 12.20171 2225 ft 208 kts 218°
2026-02-20 08:07 41.77280 12.19018 2391 ft 230 kts 213°
2026-02-20 08:07 41.75848 12.17836 2637 ft 250 kts 212°
2026-02-20 08:07 41.74334 12.16600 3127 ft 264 kts 213°
2026-02-20 08:07 41.72743 12.15279 3815 ft 272 kts 213°
2026-02-20 08:08 41.71136 12.13913 4683 ft 275 kts 217°
2026-02-20 08:08 41.69881 12.12029 5469 ft 273 kts 249°
2026-02-20 08:08 41.69615 12.09569 6256 ft 269 kts 283°
2026-02-20 08:08 41.70423 12.07379 7015 ft 264 kts 317°
2026-02-20 08:09 41.72008 12.06229 7785 ft 263 kts 351°
2026-02-20 08:09 41.73843 12.06251 8598 ft 265 kts
2026-02-20 08:09 41.75692 12.06394 9432 ft 267 kts
2026-02-20 08:09 41.77561 12.06466 10111 ft 275 kts 359°
2026-02-20 08:10 41.79553 12.06484 10313 ft 297 kts 358°
2026-02-20 08:10 41.81702 12.06459 10507 ft 319 kts 358°
2026-02-20 08:10 41.83948 12.06410 11043 ft 327 kts 357°
2026-02-20 08:10 41.86243 12.06351 11722 ft 331 kts 357°
2026-02-20 08:11 41.88558 12.06291 12428 ft 335 kts 357°
2026-02-20 08:11 41.90908 12.06231 13143 ft 339 kts 357°
2026-02-20 08:11 41.93281 12.06173 13826 ft 343 kts 357°
2026-02-20 08:11 41.95677 12.06117 14446 ft 347 kts 356°
2026-02-20 08:12 41.98102 12.05988 15107 ft 350 kts 354°
2026-02-20 08:12 42.00546 12.05769 15730 ft 353 kts 353°
2026-02-20 08:12 42.03005 12.05505 16346 ft 357 kts 353°
2026-02-20 08:12 42.05493 12.05221 16959 ft 361 kts 353°
2026-02-20 08:13 42.08009 12.04938 17562 ft 364 kts 353°
2026-02-20 08:13 42.10554 12.04664 18149 ft 368 kts 353°
2026-02-20 08:13 42.13123 12.04401 18660 ft 372 kts 353°
2026-02-20 08:13 42.15723 12.04146 19153 ft 376 kts 354°
2026-02-20 08:14 42.18347 12.03870 19663 ft 379 kts 351°
2026-02-20 08:14 42.20963 12.03311 20147 ft 383 kts 349°
2026-02-20 08:14 42.23604 12.02717 20632 ft 387 kts 349°
2026-02-20 08:14 42.26269 12.02118 21123 ft 390 kts 349°
2026-02-20 08:15 42.28959 12.01513 21590 ft 394 kts 349°
2026-02-20 08:15 42.31678 12.00900 22050 ft 398 kts 349°
2026-02-20 08:15 42.34422 12.00281 22529 ft 401 kts 349°
2026-02-20 08:15 42.37183 11.99656 22991 ft 405 kts 349°
2026-02-20 08:16 42.39940 11.99034 23450 ft 409 kts 349°
2026-02-20 08:16 42.42759 11.98402 23863 ft 411 kts 349°
2026-02-20 08:16 42.45588 11.97769 24300 ft 412 kts 349°
2026-02-20 08:16 42.48423 11.97133 24733 ft 414 kts 349°
2026-02-20 08:17 42.51270 11.96493 25165 ft 415 kts 349°
2026-02-20 08:17 42.54125 11.95849 25609 ft 417 kts 349°
2026-02-20 08:17 42.56987 11.95202 26025 ft 418 kts 349°
2026-02-20 08:17 42.59862 11.94549 26450 ft 419 kts 349°
2026-02-20 08:18 42.62744 11.93892 26883 ft 420 kts 349°
2026-02-20 08:18 42.65633 11.93232 27293 ft 422 kts 349°
2026-02-20 08:18 42.68531 11.92571 27678 ft 423 kts 349°
2026-02-20 08:18 42.71442 11.91908 28045 ft 425 kts 349°
2026-02-20 08:19 42.74369 11.91245 28416 ft 427 kts 349°
2026-02-20 08:19 42.77302 11.90578 28786 ft 429 kts 349°
2026-02-20 08:19 42.80250 11.89902 29133 ft 430 kts 349°
2026-02-20 08:19 42.83156 11.88949 29487 ft 431 kts 341°
2026-02-20 08:20 42.85917 11.87387 29928 ft 429 kts 333°
2026-02-20 08:20 42.88545 11.85460 30310 ft 428 kts 332°
2026-02-20 08:20 42.91167 11.83537 30660 ft 427 kts 332°
2026-02-20 08:20 42.93786 11.81628 30985 ft 427 kts 332°
2026-02-20 08:21 42.96411 11.79718 31340 ft 426 kts 332°
2026-02-20 08:21 42.99027 11.77808 31666 ft 426 kts 332°
2026-02-20 08:21 43.01638 11.75895 32008 ft 426 kts 332°
2026-02-20 08:21 43.04249 11.73977 32351 ft 426 kts 332°
2026-02-20 08:22 43.06856 11.72057 32699 ft 425 kts 332°
2026-02-20 08:22 43.09459 11.70140 33051 ft 425 kts 332°
2026-02-20 08:22 43.12057 11.68226 33384 ft 424 kts 332°
2026-02-20 08:22 43.14653 11.66309 33771 ft 421 kts 333°
2026-02-20 08:23 43.17223 11.64409 34147 ft 419 kts 333°
2026-02-20 08:23 43.19823 11.62611 34425 ft 417 kts 338°
2026-02-20 08:23 43.22586 11.61407 34672 ft 417 kts 347°
2026-02-20 08:23 43.25467 11.60890 34914 ft 419 kts 356°
2026-02-20 08:24 43.28387 11.60884 35143 ft 419 kts 358°
2026-02-20 08:24 43.31305 11.60902 35380 ft 420 kts 358°
2026-02-20 08:24 43.34234 11.60916 35606 ft 420 kts 358°
2026-02-20 08:24 43.37163 11.60929 35800 ft 421 kts 358°
2026-02-20 08:25 43.42981 11.60948 35866 ft 419 kts 358°
2026-02-20 08:25 43.48808 11.60963 35865 ft 418 kts 358°
2026-02-20 08:26 43.54625 11.60984 35866 ft 418 kts 358°
2026-02-20 08:26 43.60457 11.61010 35865 ft 418 kts 358°
2026-02-20 08:27 43.66285 11.61037 35866 ft 418 kts 358°
2026-02-20 08:27 43.72100 11.61063 35866 ft 418 kts 358°
2026-02-20 08:28 43.77923 11.61083 35867 ft 418 kts 358°
2026-02-20 08:28 43.83748 11.61104 35878 ft 419 kts 358°
2026-02-20 08:29 43.89574 11.61126 35872 ft 419 kts 359°
2026-02-20 08:29 43.95411 11.61159 35871 ft 419 kts 359°
2026-02-20 08:30 44.01245 11.61185 35871 ft 419 kts 359°
2026-02-20 08:30 44.07043 11.61196 35871 ft 419 kts 359°
2026-02-20 08:31 44.12876 11.61218 35873 ft 419 kts 359°
2026-02-20 08:31 44.18741 11.61246 35873 ft 419 kts 359°
2026-02-20 08:32 44.24567 11.61272 35872 ft 419 kts 359°
2026-02-20 08:33 44.33272 11.61309 35877 ft 419 kts 359°
2026-02-20 08:33 44.39100 11.61330 35882 ft 418 kts 359°
2026-02-20 08:34 44.44918 11.61350 35882 ft 418 kts 359°
2026-02-20 08:34 44.50747 11.61380 35884 ft 418 kts 359°
2026-02-20 08:35 44.59477 11.61404 35884 ft 418 kts 359°
2026-02-20 08:35 44.65304 11.61425 35885 ft 418 kts 359°
2026-02-20 08:36 44.71124 11.61454 35879 ft 418 kts 359°
2026-02-20 08:36 44.76947 11.61484 35872 ft 418 kts 359°
2026-02-20 08:37 44.82767 11.61508 35863 ft 418 kts 359°
2026-02-20 08:37 44.88586 11.61532 35861 ft 418 kts 359°
2026-02-20 08:38 44.94409 11.61544 35861 ft 417 kts 359°
2026-02-20 08:38 45.00218 11.61569 35870 ft 417 kts 359°
2026-02-20 08:39 45.06026 11.61596 35867 ft 417 kts 359°
2026-02-20 08:39 45.11823 11.61619 35868 ft 417 kts 359°
2026-02-20 08:40 45.17621 11.61643 35869 ft 416 kts 359°
2026-02-20 08:40 45.23410 11.61666 35858 ft 415 kts 359°
2026-02-20 08:41 45.29183 11.61693 35876 ft 414 kts 359°
2026-02-20 08:41 45.34933 11.61721 35881 ft 413 kts 359°
2026-02-20 08:42 45.40666 11.61744 35889 ft 412 kts 359°
2026-02-20 08:42 45.46399 11.61769 35883 ft 412 kts 359°
2026-02-20 08:43 45.52123 11.61798 35877 ft 411 kts 359°
2026-02-20 08:43 45.57846 11.61827 35880 ft 411 kts 359°
2026-02-20 08:44 45.63569 11.61846 35875 ft 411 kts 359°
2026-02-20 08:44 45.69287 11.61868 35862 ft 411 kts 359°
2026-02-20 08:45 45.74998 11.61889 35848 ft 410 kts 359°
2026-02-20 08:45 45.80665 11.61915 35847 ft 410 kts 359°
2026-02-20 08:46 45.86366 11.61945 35835 ft 410 kts 359°
2026-02-20 08:46 45.92066 11.61969 35841 ft 410 kts 359°
2026-02-20 08:47 45.97781 11.61997 35840 ft 410 kts 359°
2026-02-20 08:47 46.02563 11.62021 35833 ft 409 kts 359°
2026-02-20 08:48 46.08262 11.62039 35853 ft 409 kts 359°
2026-02-20 08:48 46.13962 11.62059 35867 ft 409 kts 359°
2026-02-20 08:49 46.19536 11.60700 35871 ft 409 kts 340°
2026-02-20 08:49 46.24595 11.56943 35879 ft 410 kts 332°
2026-02-20 08:50 46.29549 11.52927 35860 ft 410 kts 333°
2026-02-20 08:50 46.34534 11.48897 35861 ft 410 kts 333°
2026-02-20 08:51 46.39512 11.44843 35846 ft 411 kts 332°
2026-02-20 08:51 46.44490 11.40781 35930 ft 410 kts 333°
2026-02-20 08:52 46.49464 11.36714 35931 ft 411 kts 333°
2026-02-20 08:52 46.54437 11.32641 35927 ft 409 kts 333°
2026-02-20 08:53 46.59382 11.28582 35926 ft 407 kts 333°
2026-02-20 08:53 46.64313 11.24526 35908 ft 406 kts 333°
2026-02-20 08:54 46.69224 11.20469 35902 ft 406 kts 333°
2026-02-20 08:54 46.74143 11.16416 35905 ft 406 kts 333°
2026-02-20 08:55 46.79059 11.12353 35949 ft 406 kts 333°
2026-02-20 08:55 46.83970 11.08282 35949 ft 406 kts 333°
2026-02-20 08:56 46.88884 11.04237 35970 ft 404 kts 334°
2026-02-20 08:56 46.93815 11.00312 36007 ft 403 kts 334°
2026-02-20 08:57 46.98740 10.96430 36044 ft 401 kts 334°
2026-02-20 08:57 47.03643 10.92539 36079 ft 401 kts 334°
2026-02-20 08:58 47.08535 10.88631 36075 ft 400 kts 334°
2026-02-20 08:58 47.13419 10.84723 36094 ft 400 kts 334°
2026-02-20 08:59 47.18272 10.80825 36100 ft 400 kts 334°
2026-02-20 08:59 47.23144 10.76889 36108 ft 397 kts 334°
2026-02-20 09:00 47.27978 10.72995 36129 ft 395 kts 334°
2026-02-20 09:00 47.32796 10.69106 36143 ft 394 kts 334°
2026-02-20 09:01 47.37592 10.65223 36124 ft 393 kts 334°
2026-02-20 09:01 47.42385 10.61338 36128 ft 392 kts 334°
2026-02-20 09:02 47.47158 10.57455 36118 ft 392 kts 334°
2026-02-20 09:02 47.51940 10.53551 36128 ft 391 kts 334°
2026-02-20 09:03 47.56706 10.49656 36105 ft 391 kts 335°
2026-02-20 09:03 47.61414 10.45798 36153 ft 388 kts 335°
2026-02-20 09:04 47.66124 10.41934 36168 ft 386 kts 335°
2026-02-20 09:04 47.70814 10.38087 36177 ft 385 kts 335°
2026-02-20 09:05 47.75405 10.33988 36171 ft 388 kts 326°
2026-02-20 09:05 47.79594 10.28901 36179 ft 389 kts 326°
2026-02-20 09:06 47.83777 10.23788 36199 ft 389 kts 326°
2026-02-20 09:06 47.87963 10.18673 36169 ft 389 kts 326°
2026-02-20 09:07 47.92136 10.13564 36200 ft 388 kts 326°
2026-02-20 09:07 47.96300 10.08469 36206 ft 386 kts 326°
2026-02-20 09:08 48.00444 10.03374 36216 ft 386 kts 326°
2026-02-20 09:08 48.04585 9.98268 36207 ft 385 kts 326°
2026-02-20 09:09 48.08716 9.93173 36206 ft 385 kts 325°
2026-02-20 09:09 48.12844 9.88066 36205 ft 385 kts 325°
2026-02-20 09:10 48.16974 9.82949 36180 ft 385 kts 325°
2026-02-20 09:10 48.21092 9.77833 36193 ft 384 kts 325°
2026-02-20 09:11 48.25178 9.72746 36209 ft 384 kts 325°
2026-02-20 09:11 48.29286 9.67618 36205 ft 384 kts 325°
2026-02-20 09:12 48.33417 9.62438 36205 ft 384 kts 324°
2026-02-20 09:12 48.37185 9.56744 36201 ft 387 kts 319°
2026-02-20 09:13 48.40930 9.50919 36178 ft 387 kts 319°
2026-02-20 09:13 48.44668 9.45092 36194 ft 386 kts 319°
2026-02-20 09:14 48.48421 9.39228 36203 ft 386 kts 319°
2026-02-20 09:14 48.52120 9.33449 36209 ft 385 kts 319°
2026-02-20 09:15 48.55836 9.27622 36198 ft 385 kts 319°
2026-02-20 09:15 48.59539 9.21804 36206 ft 384 kts 319°
2026-02-20 09:16 48.63242 9.15965 36198 ft 384 kts 318°
2026-02-20 09:16 48.66932 9.10129 36181 ft 384 kts 317°
2026-02-20 09:17 48.70618 9.04299 36196 ft 383 kts 317°
2026-02-20 09:17 48.74301 8.98459 36213 ft 383 kts 317°
2026-02-20 09:18 48.77968 8.92612 36215 ft 383 kts 317°
2026-02-20 09:18 48.81639 8.86751 36216 ft 382 kts 317°
2026-02-20 09:19 48.85282 8.80942 36213 ft 382 kts 317°
2026-02-20 09:19 48.88944 8.75082 36209 ft 381 kts 317°
2026-02-20 09:20 48.92576 8.69244 36236 ft 379 kts 317°
2026-02-20 09:20 48.96194 8.63433 36237 ft 377 kts 317°
2026-02-20 09:21 48.99817 8.57594 36239 ft 377 kts 316°
2026-02-20 09:21 49.03297 8.51689 36234 ft 377 kts 315°
2026-02-20 09:22 49.06743 8.45676 36228 ft 376 kts 315°
2026-02-20 09:22 49.10214 8.39630 36225 ft 376 kts 315°
2026-02-20 09:23 49.13654 8.33678 36224 ft 376 kts 315°
2026-02-20 09:23 49.17118 8.27695 36221 ft 376 kts 315°
2026-02-20 09:24 49.20580 8.21696 36222 ft 376 kts 315°
2026-02-20 09:24 49.24040 8.15670 36237 ft 376 kts 315°
2026-02-20 09:25 49.27489 8.09644 36235 ft 376 kts 314°
2026-02-20 09:25 49.30940 8.03615 36229 ft 377 kts 314°
2026-02-20 09:26 49.34392 7.97568 36210 ft 377 kts 314°
2026-02-20 09:26 49.37837 7.91509 36210 ft 377 kts 314°
2026-02-20 09:27 49.41279 7.85433 36210 ft 377 kts 314°
2026-02-20 09:27 49.44728 7.79360 36211 ft 377 kts 314°
2026-02-20 09:28 49.48171 7.73284 36212 ft 377 kts 314°
2026-02-20 09:28 49.51034 7.68219 36218 ft 377 kts 314°
2026-02-20 09:29 49.54493 7.62072 36205 ft 377 kts 313°
2026-02-20 09:29 49.57920 7.55955 36213 ft 377 kts 313°
2026-02-20 09:30 49.61351 7.49832 36215 ft 377 kts 313°
2026-02-20 09:30 49.64775 7.43710 36214 ft 377 kts 313°
2026-02-20 09:31 49.68193 7.37574 36205 ft 377 kts 313°
2026-02-20 09:31 49.71592 7.31462 36205 ft 377 kts 313°
2026-02-20 09:32 49.75024 7.25276 36209 ft 377 kts 313°
2026-02-20 09:32 49.78416 7.19159 36178 ft 377 kts 312°
2026-02-20 09:33 49.81824 7.12991 36181 ft 377 kts 311°
2026-02-20 09:33 49.85232 7.06811 36168 ft 377 kts 311°
2026-02-20 09:34 49.88639 7.00618 36169 ft 377 kts 311°
2026-02-20 09:34 49.92040 6.94416 36169 ft 377 kts 311°
2026-02-20 09:35 49.95436 6.88198 36180 ft 377 kts 311°
2026-02-20 09:35 49.98828 6.81977 36164 ft 377 kts 311°
2026-02-20 09:36 50.02221 6.75747 36187 ft 378 kts 311°
2026-02-20 09:36 50.05614 6.69504 36184 ft 378 kts 310°
2026-02-20 09:37 50.09011 6.63240 36180 ft 378 kts 310°
2026-02-20 09:37 50.12407 6.56961 36177 ft 378 kts 310°
2026-02-20 09:38 50.15793 6.50672 36167 ft 379 kts 310°
2026-02-20 09:38 50.19157 6.44350 36162 ft 379 kts 309°
2026-02-20 09:39 50.22263 6.37708 36134 ft 379 kts 305°
2026-02-20 09:39 50.25236 6.30892 36152 ft 380 kts 305°
2026-02-20 09:40 50.28214 6.24116 36144 ft 380 kts 305°
2026-02-20 09:40 50.31266 6.17293 36140 ft 380 kts 306°
2026-02-20 09:41 50.34284 6.10559 36138 ft 380 kts 306°
2026-02-20 09:41 50.37340 6.03721 36160 ft 381 kts 305°
2026-02-20 09:42 50.40362 5.96915 36152 ft 381 kts 304°
2026-02-20 09:43 50.44888 5.86674 36162 ft 381 kts 304°
2026-02-20 09:43 50.47893 5.79872 36163 ft 381 kts 304°
2026-02-20 09:44 50.50914 5.73026 36193 ft 381 kts 304°
2026-02-20 09:44 50.53926 5.66175 36193 ft 381 kts 304°
2026-02-20 09:45 50.56934 5.59302 36186 ft 381 kts 304°
2026-02-20 09:45 50.59931 5.52426 36189 ft 381 kts 303°
2026-02-20 09:46 50.62940 5.45534 36187 ft 381 kts 304°
2026-02-20 09:46 50.65944 5.38638 36187 ft 381 kts 303°
2026-02-20 09:47 50.68939 5.31727 36186 ft 381 kts 303°
2026-02-20 09:47 50.71906 5.24848 36186 ft 381 kts 303°
2026-02-20 09:48 50.74892 5.17910 36185 ft 381 kts 303°
2026-02-20 09:48 50.77869 5.10968 36184 ft 382 kts 303°
2026-02-20 09:49 50.80655 5.03816 36173 ft 383 kts 293°
2026-02-20 09:49 50.82303 4.95807 36172 ft 383 kts 287°
2026-02-20 09:49 50.83074 4.91747 36030 ft 385 kts 287°
2026-02-20 09:50 50.83904 4.87726 35457 ft 387 kts 294°
2026-02-20 09:50 50.85247 4.83977 34421 ft 397 kts 301°
2026-02-20 09:50 50.86740 4.80244 33268 ft 406 kts 301°
2026-02-20 09:50 50.88283 4.76415 32105 ft 415 kts 302°
2026-02-20 09:51 50.89850 4.72537 30949 ft 422 kts 302°
2026-02-20 09:51 50.91439 4.68599 29766 ft 427 kts 301°
2026-02-20 09:51 50.93028 4.64642 29018 ft 422 kts 301°
2026-02-20 09:51 50.94591 4.60734 28323 ft 417 kts 301°
2026-02-20 09:52 50.96121 4.56892 27757 ft 403 kts 301°
2026-02-20 09:52 50.97564 4.53255 27242 ft 380 kts 301°
2026-02-20 09:52 50.98945 4.49772 26719 ft 375 kts 301°
2026-02-20 09:52 51.00324 4.46283 26205 ft 371 kts 301°
2026-02-20 09:53 51.01693 4.42818 25703 ft 367 kts 301°
2026-02-20 09:53 51.03060 4.39349 25212 ft 374 kts 301°
2026-02-20 09:53 51.04441 4.35842 24726 ft 375 kts 301°
2026-02-20 09:53 51.05823 4.32332 24238 ft 373 kts 301°
2026-02-20 09:54 51.07199 4.28836 23772 ft 371 kts 301°
2026-02-20 09:54 51.08564 4.25370 23222 ft 369 kts 301°
2026-02-20 09:54 51.09921 4.21917 22677 ft 367 kts 301°
2026-02-20 09:54 51.11267 4.18487 22136 ft 364 kts 301°
2026-02-20 09:55 51.12602 4.15078 21605 ft 361 kts 301°
2026-02-20 09:55 51.13924 4.11694 21085 ft 359 kts 301°
2026-02-20 09:55 51.15236 4.08330 20570 ft 357 kts 301°
2026-02-20 09:55 51.16543 4.04982 20083 ft 354 kts 301°
2026-02-20 09:56 51.17839 4.01658 19571 ft 352 kts 301°
2026-02-20 09:56 51.19124 3.98351 19091 ft 350 kts 301°
2026-02-20 09:56 51.20400 3.95062 18601 ft 348 kts 301°
2026-02-20 09:56 51.21795 3.91926 18080 ft 347 kts 310°
2026-02-20 09:57 51.23619 3.89406 17540 ft 348 kts 324°
2026-02-20 09:57 51.25792 3.87685 17005 ft 350 kts 338°
2026-02-20 09:57 51.28180 3.86886 16490 ft 354 kts 352°
2026-02-20 09:57 51.30644 3.86801 16018 ft 353 kts 355°
2026-02-20 09:58 51.33095 3.86751 15562 ft 351 kts 355°
2026-02-20 09:58 51.35526 3.86694 15120 ft 348 kts 355°
2026-02-20 09:58 51.37948 3.86634 14665 ft 346 kts 356°
2026-02-20 09:58 51.40348 3.86979 14228 ft 348 kts
2026-02-20 09:59 51.42667 3.88146 13771 ft 351 kts 20°
2026-02-20 09:59 51.44778 3.90083 13292 ft 354 kts 32°
2026-02-20 09:59 51.46762 3.92410 12804 ft 353 kts 32°
2026-02-20 09:59 51.48741 3.94720 12340 ft 351 kts 32°
2026-02-20 10:00 51.50711 3.97008 11904 ft 349 kts 32°
2026-02-20 10:00 51.52677 3.99289 11434 ft 347 kts 32°
2026-02-20 10:00 51.54630 4.01551 10988 ft 346 kts 32°
2026-02-20 10:00 51.56575 4.03803 10535 ft 343 kts 32°
2026-02-20 10:01 51.58496 4.06035 10099 ft 339 kts 32°
2026-02-20 10:01 51.60394 4.08248 9618 ft 335 kts 32°
2026-02-20 10:01 51.62263 4.10432 9285 ft 327 kts 32°
2026-02-20 10:01 51.64083 4.12560 8963 ft 320 kts 32°
2026-02-20 10:02 51.65845 4.14621 8630 ft 302 kts 32°
2026-02-20 10:02 51.67503 4.16569 8329 ft 293 kts 32°
2026-02-20 10:02 51.69143 4.18492 8022 ft 289 kts 32°
2026-02-20 10:02 51.70765 4.20396 7705 ft 287 kts 32°
2026-02-20 10:03 51.72374 4.22283 7395 ft 286 kts 32°
2026-02-20 10:03 51.73953 4.24228 7099 ft 287 kts 39°
2026-02-20 10:03 51.75292 4.26622 6802 ft 288 kts 49°
2026-02-20 10:03 51.76548 4.29127 6499 ft 287 kts 49°
2026-02-20 10:04 51.77812 4.31639 6186 ft 286 kts 48°
2026-02-20 10:04 51.79059 4.34121 5869 ft 283 kts 48°
2026-02-20 10:04 51.80302 4.36584 5545 ft 282 kts 47°
2026-02-20 10:04 51.81515 4.38987 5241 ft 278 kts 48°
2026-02-20 10:05 51.82749 4.41437 4912 ft 276 kts 47°
2026-02-20 10:05 51.83938 4.43796 4607 ft 272 kts 48°
2026-02-20 10:05 51.85119 4.46152 4331 ft 266 kts 48°
2026-02-20 10:05 51.86259 4.48440 4115 ft 257 kts 48°
2026-02-20 10:06 51.87364 4.50659 3906 ft 249 kts 48°
2026-02-20 10:06 51.88442 4.52815 3699 ft 244 kts 48°
2026-02-20 10:06 51.89500 4.54932 3499 ft 240 kts 48°
2026-02-20 10:06 51.90551 4.57031 3283 ft 239 kts 48°
2026-02-20 10:07 51.91592 4.59115 3063 ft 237 kts 49°
2026-02-20 10:07 51.92621 4.61178 2891 ft 232 kts 49°
2026-02-20 10:07 51.93625 4.63191 2668 ft 227 kts 49°
2026-02-20 10:07 51.94288 4.64518 2518 ft 221 kts 49°
2026-02-20 10:08 51.95858 4.66310 2248 ft 206 kts
2026-02-20 10:08 51.97226 4.66203 2083 ft 194 kts 334°
2026-02-20 10:08 51.98371 4.65109 2004 ft 189 kts 319°
2026-02-20 10:08 51.99456 4.63885 2001 ft 190 kts 318°
2026-02-20 10:09 52.00356 4.62386 1997 ft 184 kts 298°
2026-02-20 10:09 52.00746 4.61183 2000 ft 180 kts 287°
2026-02-20 10:09 52.00995 4.59219 1915 ft 177 kts 269°
2026-02-20 10:09 52.00834 4.57308 1767 ft 165 kts 251°
2026-02-20 10:10 52.00355 4.55741 1573 ft 148 kts 238°
2026-02-20 10:10 51.99819 4.54394 1374 ft 137 kts 238°
2026-02-20 10:10 51.99308 4.53112 1192 ft 133 kts 238°
2026-02-20 10:10 51.98816 4.51874 1001 ft 130 kts 238°
2026-02-20 10:11 51.98324 4.50641 801 ft 130 kts 236°
2026-02-20 10:11 51.97846 4.49406 566 ft 129 kts 237°
2026-02-20 10:11 51.97372 4.48179 399 ft 128 kts 235°
2026-02-20 10:11 51.96881 4.46987 279 ft 127 kts 233°
2026-02-20 10:12 51.96394 4.45782 88 ft 127 kts 235°
2026-02-20 10:12 51.95929 4.44618 -1 ft 115 kts 233°
2026-02-20 10:12 51.95639 4.43907 0 ft 38 kts 238°
2026-02-20 10:12 51.95555 4.43711 0 ft 19 kts 227°
2026-02-20 10:13 51.95453 4.43574 0 ft 19 kts 214°
2026-02-20 10:13 51.95346 4.43452 0 ft 19 kts 215°
2026-02-20 10:13 51.95252 4.43430 1 ft 13 kts 156°
2026-02-20 10:13 51.95174 4.43508 1 ft 14 kts 147°
2026-02-20 10:14 51.95081 4.43605 1 ft 18 kts 148°
2026-02-20 10:14 51.95029 4.43656 1 ft 8 kts 158°
2026-02-20 10:14 51.94992 4.43604 1 ft 2 kts 238°
2026-02-20 10:14 51.94979 4.43568 1 ft 5 kts 242°
2026-02-20 10:15 51.94995 4.43527 1 ft 4 kts 325°
2026-02-20 10:15 51.95009 4.43513 1 ft 2 kts 327°
2026-02-20 10:15 51.95015 4.43507 1 ft 0 kts 327°
2026-02-20 10:15 51.95015 4.43506 1 ft 0 kts 327°